Regional Weather Roundup
Issued by NWS San Diego, CA

Home | Current Version | Previous Version | Text Only | Print | Product List | Glossary On
Versions: 1 2 3 4 5 6 7 8 9 10 11 12 13 14 15 16 17 18 19 20 21 22 23 24 25 26 27 28 29 30 31 32 33 34 35 36 37 38 39 40 41 42 43 44 45 46 47 48 49 50
000
ASUS46 KSGX 211711
RWRSGX

SAN DIEGO HOURLY WEATHER ROUNDUP
NATIONAL WEATHER SERVICE SAN DIEGO CA
1000 AM PDT SAT OCT 21 2017

NOTE: "FAIR" INDICATES FEW OR NO CLOUDS BELOW 12,000 FEET WITH NO
SIGNIFICANT WEATHER AND/OR OBSTRUCTIONS TO VISIBILITY.

CAZ042-043-060-061-PZZ750-775-211800-

GREATER SAN DIEGO AREA

CITY           SKY/WX    TMP DP  RH WIND       PRES   REMARKS
SAN DIEGO AP   MOSUNNY   66  52  60 CALM      30.06R
NATIONAL CITY    N/A     67  57  69 NE3       30.07R
CHULA VISTA      N/A     68  58  70 E1        29.97R
IMPERIAL BEACH SUNNY     68  52  56 VRB3      30.04S
BROWN FIELD    SUNNY     67  54  63 CALM      30.04S
MIRAMAR MCAS   SUNNY     72  56  57 VRB5      30.05R
MONTGOMERY FLD SUNNY     69  53  56 VRB5      30.05R
GILLESPIE FLD  SUNNY     63  50  63 CALM      30.07R

$$

NORTH SAN DIEGO COUNTY

CITY           SKY/WX    TMP DP  RH WIND       PRES   REMARKS
CAMP PENDLETON SUNNY     65  54  67 CALM      30.05S
OCEANSIDE AP   SUNNY     68  53  58 E6        30.05R
OCEANSIDE HBR    N/A     66  56  69 NE6       30.07S
VISTA            N/A     67  56  67 CALM      30.03R
CARLSBAD       SUNNY     66  55  67 CALM      30.04R
DEL MAR          N/A     66  58  76 CALM      30.06R
LA JOLLA SCRIP   N/A     67  58  73 W3        30.04R
FALLBROOK        N/A     65  58  79 W1        30.05R
ESCONDIDO        N/A     66  54  66 CALM      30.07R
SAN MARCOS       N/A     65  55  70 CALM      30.07R
POWAY            N/A     66  56  70 CALM      30.08R

$$

EAST SAN DIEGO COUNTY

CITY           SKY/WX    TMP DP  RH WIND       PRES   REMARKS
RAMONA         SUNNY     64  50  60 W3        30.06R
SANTEE LAKES     N/A     65  54  68 CALM      30.05R
LA MESA          N/A     63  54  73 CALM      29.99R
JAMUL            N/A     64  53  67 CALM      30.05R
DESCANSO N       N/A     56  48  74 E5        30.03R
CAMPO            N/A     68  38  33 E16G22    30.02S

$$

ORANGE COUNTY AND THE LOS ANGELES BASIN

CITY           SKY/WX    TMP DP  RH WIND       PRES   REMARKS
JOHN WAYNE AP  SUNNY     67  55  65 CALM      30.06R
LAGUNA BEACH     N/A     67  60  79 S2        30.01R
LAKE FOREST FR   N/A     62  52  70 CALM      29.96R
HUNTINGTON BCH   N/A     71  60  68 CALM      30.07R
LOS ALAMITOS   MOSUNNY   67  55  66 CALM      30.06R
FULLERTON      SUNNY     67  56  67 CALM      30.05R
LONG BEACH     SUNNY     67  56  67 CALM      30.06R
L.A. AP        MOSUNNY   69  55  60 VRB5      30.06R
L.A. DOWNTOWN  SUNNY     68  51  54 CALM      30.05R

$$

THE INLAND EMPIRE

CITY           SKY/WX    TMP DP  RH WIND       PRES   REMARKS
CORONA         SUNNY     66  50  56 CALM      30.07R
CHINO          MOSUNNY   66  55  67 CALM      30.08R
ONTARIO        MOSUNNY   62  54  74 CALM      30.06R
SAN BERNARDINO MOSUNNY   64  46  52 CALM      30.07S
RIVERSIDE AP   SUNNY     65  50  58 VRB3      30.06S
MORENO VALLEY    N/A     66  50  57 E1        28.18S
MARCH ARB      SUNNY     63  49  60 N5        30.06S
PERRIS           N/A     60  55  82 SE1         N/A
HEMET EAST       N/A     58  52  82 CALM      29.96S
FRENCH VALLEY  FAIR      63  50  63 NW5       30.08R
TEMECULA         N/A     60  55  83 W1        30.12R

$$

SAN BERNARDINO AND RIVERSIDE COUNTY MOUNTAINS

CITY           SKY/WX    TMP DP  RH WIND       PRES   REMARKS
BIG BEAR AP    SUNNY     48  16  27 E12       30.23R

$$

SOUTHERN DESERT INCLUDING THE COACHELLA VALLEY

CITY           SKY/WX    TMP DP  RH WIND       PRES   REMARKS
PALM SPRINGS   SUNNY     78  24  13 NW9       30.07R
THOUSAND PALMS   N/A     76  33  21 W5        30.02R
PALM DESERT      N/A     77  33  20 N6        31.04S
THERMAL        SUNNY     79  29  16 NW13      30.02R
BLYTHE         SUNNY     75  22  13 N21       30.04R
IMPERIAL AP    SUNNY     74  50  42 NW7       30.01R
EL CENTRO NAS  MOSUNNY   77  42  28 N7        30.03R
YUMA AZ        SUNNY     75  31  19 N9        30.01R
MEXICALI       SUNNY     73  43  33 NW9       30.02R

$$

UPPER DESERT

CITY           SKY/WX    TMP DP  RH WIND       PRES   REMARKS
VICTORVILLE AP SUNNY     54  30  40 CALM      30.20R
HESPERIA         N/A     55  34  44 CALM      30.32R
PALMDALE       SUNNY     56  35  45 NE5       30.19R
LANCASTER      SUNNY     58  33  39 E7        30.19R
EDWARDS AFB    PTSUNNY   52  33  48 CALM      30.18R
DAGGETT        SUNNY     59  35  40 W10       30.19R
29 PALMS N     MOSUNNY   64  24  21 W14       30.22R
NEEDLES        SUNNY     74  15  10 N23       30.10R

$$

REGIONAL REPORTS

CITY           SKY/WX    TMP DP  RH WIND       PRES   REMARKS
SANTA BARBARA  SUNNY     68  40  35 SE5       30.07R
SANDBERG       SUNNY     54  28  36 N8        30.20R
LAS VEGAS NV   MOSUNNY   64  16  15 N12       30.18R
PHOENIX AZ     MOSUNNY   71  47  42 VRB5      29.99R
TIJUANA        SUNNY     66  50  55 CALM      30.07R
ENSENADA NW      N/A     65  32  29 CALM      30.01R

$$

OFFSHORE ISLANDS

CITY           SKY/WX    TMP DP  RH WIND       PRES   REMARKS
CATALINA ARPT  PTSUNNY   61  57  87 NW6       30.08R
SAN NICOLAS IS SUNNY     62  56  80 NW20      30.08R

$$

MARINE AND OFFSHORE BUOY REPORTS

STATION/POSITION SKY/WX   TEMP    WIND        PRES    VSBY  SWELL
                          AIR SEA DIR/SP/G                  HT/PER/DIR
                          (F)     (DEG/KT/KT) (MB)    (MI)  (FT/S/D)
TANNER BANKS               62 63  330/ 19/ 23 1017.6R        15/330/16
S CLEMENTE BASIN           67 69  310/ 10/ 14 1017.3R        10/280/17
SAN NICOLAS IS.               62                N/A          11/310/15
SO. S. ROSA ISLA           59 60  320/ 25/ 31 1018.1F        11/300/16
W. S. BARBARA CH           58 57  310/ 25/ 31 1019.0
M. S. BARBARA CH           62 62   60/  2/  6 1019.3
S. MONICA BASIN               68  340/ 12/ 14 1017.7R         5/270/ 6
S PEDRO CHANNEL               66                N/A           2/250/12
CMP PENDLETON NS              68                N/A           2/220/13
OCEANSIDE OFFSHR              69                N/A           2/270/11
TORREY PINES OTR              67                N/A           3/280/17
SAN DIEGO BAY                 73              1017.9R
POINT LOMA SOUTH              69                N/A           7/280/17

$$





USA.gov is the U.S. government's official web portal to all federal, state and local government web resources and services.